N95 MMAA-SEGS

Flight info

Callsign N95
Flight time 2h 53m
Altitude 35000
Route AMUSI2B AMUSI UL344 YEDRA/N0479F370 UL344 POGAM UL401 OSELO/N0476F380
Aircraft CL60/M-SADE3FGHIJ3J4J7P2RWXY/HB1D1

Departure

Time 2026-05-04 03:50
Airport General Juan N. Álvarez International Airport (MMAA)

Arrival

Time 2026-05-04 06:44
Airport Seymour Galapagos Ecological Airport (SEGS)
Time Latitude Longitude Altitude Speed Heading
2026-05-04 02:58 16.76070 -99.75153 26 ft 0 kts 245°
2026-05-04 03:45 16.76069 -99.75154 26 ft 2 kts 233°
2026-05-04 03:45 16.76032 -99.75154 26 ft 8 kts 126°
2026-05-04 03:45 16.76049 -99.75088 26 ft 11 kts 89°
2026-05-04 03:46 16.76039 -99.74991 26 ft 14 kts 97°
2026-05-04 03:46 16.76026 -99.74881 26 ft 10 kts 97°
2026-05-04 03:46 16.75992 -99.74815 26 ft 12 kts 155°
2026-05-04 03:46 16.75901 -99.74783 26 ft 15 kts 159°
2026-05-04 03:47 16.75793 -99.74736 26 ft 17 kts 157°
2026-05-04 03:47 16.75689 -99.74655 25 ft 20 kts 122°
2026-05-04 03:47 16.75635 -99.74509 25 ft 22 kts 106°
2026-05-04 03:47 16.75584 -99.74344 25 ft 24 kts 108°
2026-05-04 03:48 16.75528 -99.74165 24 ft 26 kts 108°
2026-05-04 03:48 16.75467 -99.73974 24 ft 28 kts 108°
2026-05-04 03:48 16.75404 -99.73769 24 ft 30 kts 108°
2026-05-04 03:48 16.75335 -99.73555 24 ft 31 kts 108°
2026-05-04 03:49 16.75287 -99.73395 24 ft 14 kts 108°
2026-05-04 03:49 16.75218 -99.73326 24 ft 16 kts 193°
2026-05-04 03:49 16.75110 -99.73364 23 ft 11 kts 198°
2026-05-04 03:49 16.75091 -99.73408 23 ft 6 kts 289°
2026-05-04 03:50 16.75092 -99.73413 23 ft 0 kts 289°
2026-05-04 03:50 16.75178 -99.73682 24 ft 89 kts 288°
2026-05-04 03:50 16.75449 -99.74572 92 ft 157 kts 286°
2026-05-04 03:50 16.75731 -99.75719 730 ft 174 kts 282°
2026-05-04 03:51 16.75907 -99.77071 1317 ft 206 kts 265°
2026-05-04 03:51 16.75230 -99.78354 2205 ft 220 kts 208°
2026-05-04 03:51 16.73736 -99.78327 3239 ft 227 kts 154°
2026-05-04 03:51 16.72429 -99.77403 4173 ft 239 kts 136°
2026-05-04 03:52 16.71244 -99.76133 5176 ft 250 kts 131°
2026-05-04 03:52 16.70087 -99.74731 6095 ft 265 kts 131°
2026-05-04 03:52 16.68879 -99.73258 7055 ft 276 kts 130°
2026-05-04 03:52 16.67620 -99.71727 8141 ft 282 kts 130°
2026-05-04 03:53 16.66349 -99.70183 9279 ft 284 kts 129°
2026-05-04 03:53 16.65081 -99.68642 10345 ft 288 kts 129°
2026-05-04 03:53 16.63772 -99.67053 11354 ft 294 kts 128°
2026-05-04 03:53 16.62342 -99.65482 12347 ft 300 kts 135°
2026-05-04 03:54 16.60793 -99.64035 13312 ft 305 kts 135°
2026-05-04 03:54 16.59197 -99.62556 14280 ft 309 kts 136°
2026-05-04 03:54 16.57588 -99.61064 15196 ft 313 kts 136°
2026-05-04 03:54 16.55962 -99.59557 16035 ft 318 kts 136°
2026-05-04 03:55 16.54292 -99.58009 16859 ft 323 kts 136°
2026-05-04 03:55 16.52614 -99.56456 17652 ft 327 kts 136°
2026-05-04 03:55 16.50902 -99.54889 18378 ft 333 kts 136°
2026-05-04 03:55 16.49132 -99.53273 19084 ft 339 kts 136°
2026-05-04 03:56 16.47365 -99.51660 19766 ft 344 kts 136°
2026-05-04 03:56 16.45533 -99.49988 20451 ft 350 kts 136°
2026-05-04 03:56 16.43698 -99.48313 21111 ft 354 kts 136°
2026-05-04 03:56 16.41820 -99.46600 21745 ft 359 kts 135°
2026-05-04 03:57 16.39941 -99.44887 22356 ft 364 kts 135°
2026-05-04 03:57 16.38021 -99.43136 23002 ft 368 kts 135°
2026-05-04 03:57 16.36072 -99.41357 23660 ft 372 kts 135°
2026-05-04 03:57 16.34088 -99.39539 24337 ft 376 kts 135°
2026-05-04 03:58 16.30107 -99.35892 25607 ft 382 kts 136°
2026-05-04 03:58 16.28088 -99.34045 26214 ft 386 kts 136°
2026-05-04 03:58 16.26062 -99.32191 26784 ft 389 kts 136°
2026-05-04 03:59 16.24018 -99.30320 27346 ft 393 kts 136°
2026-05-04 03:59 16.21973 -99.28450 27885 ft 396 kts 136°
2026-05-04 03:59 16.19899 -99.26553 28402 ft 400 kts 136°
2026-05-04 03:59 16.17779 -99.24615 28925 ft 403 kts 136°
2026-05-04 04:00 16.15668 -99.22686 29434 ft 406 kts 136°
2026-05-04 04:00 16.13536 -99.20738 29934 ft 408 kts 137°
2026-05-04 04:00 16.11373 -99.18819 30428 ft 411 kts 139°
2026-05-04 04:00 16.09144 -99.16928 30908 ft 413 kts 139°
2026-05-04 04:01 16.06931 -99.15052 31355 ft 416 kts 139°
2026-05-04 04:01 16.04672 -99.13137 31780 ft 418 kts 140°
2026-05-04 04:01 16.02409 -99.11220 32205 ft 420 kts 140°
2026-05-04 04:01 16.00127 -99.09288 32586 ft 423 kts 140°
2026-05-04 04:02 15.97837 -99.07349 32985 ft 425 kts 140°
2026-05-04 04:02 15.95547 -99.05411 33399 ft 427 kts 141°
2026-05-04 04:02 15.93243 -99.03462 33818 ft 428 kts 141°
2026-05-04 04:02 15.90921 -99.01498 34276 ft 428 kts 141°
2026-05-04 04:03 15.88609 -98.99544 34870 ft 425 kts 141°
2026-05-04 04:03 15.86332 -98.97619 35467 ft 421 kts 142°
2026-05-04 04:03 15.84071 -98.95709 36033 ft 417 kts 142°
2026-05-04 04:03 15.81833 -98.93819 36520 ft 414 kts 142°
2026-05-04 04:04 15.79576 -98.91913 36939 ft 413 kts 142°
2026-05-04 04:04 15.77347 -98.90031 37314 ft 412 kts 142°
2026-05-04 04:04 15.75146 -98.88174 37670 ft 411 kts 142°
2026-05-04 04:04 15.72919 -98.86295 38044 ft 409 kts 143°
2026-05-04 04:05 15.70723 -98.84443 38384 ft 408 kts 143°
2026-05-04 04:05 15.68509 -98.82577 38674 ft 408 kts 143°
2026-05-04 04:05 15.66289 -98.80705 38960 ft 408 kts 143°
2026-05-04 04:05 15.64110 -98.78870 39235 ft 407 kts 143°
2026-05-04 04:06 15.61889 -98.76999 39539 ft 406 kts 143°
2026-05-04 04:06 15.59705 -98.75160 39850 ft 405 kts 143°
2026-05-04 04:06 15.55278 -98.71435 39955 ft 412 kts 143°
2026-05-04 04:07 15.50794 -98.67665 39951 ft 420 kts 143°
2026-05-04 04:07 15.46187 -98.63793 39946 ft 428 kts 143°
2026-05-04 04:08 15.41523 -98.59875 39947 ft 434 kts 143°
2026-05-04 04:08 15.36785 -98.55897 39950 ft 440 kts 143°
2026-05-04 04:09 15.31997 -98.51879 39949 ft 445 kts 143°
2026-05-04 04:09 15.27158 -98.47820 39950 ft 448 kts 143°
2026-05-04 04:10 15.22286 -98.43737 39946 ft 450 kts 143°
2026-05-04 04:10 15.17386 -98.39632 39948 ft 450 kts 143°
2026-05-04 04:11 15.12510 -98.35550 39942 ft 450 kts 143°
2026-05-04 04:11 15.07625 -98.31462 39943 ft 449 kts 143°
2026-05-04 04:12 15.02769 -98.27402 39938 ft 448 kts 143°
2026-05-04 04:12 14.97927 -98.23356 39942 ft 448 kts 143°
2026-05-04 04:13 14.93072 -98.19302 39946 ft 448 kts 143°
2026-05-04 04:13 14.88191 -98.15228 39947 ft 448 kts 143°
2026-05-04 04:14 14.83362 -98.11201 39943 ft 448 kts 143°
2026-05-04 04:14 14.78481 -98.07131 39943 ft 449 kts 143°
2026-05-04 04:15 14.73614 -98.03077 39940 ft 449 kts 142°
2026-05-04 04:15 14.68720 -97.99003 39943 ft 449 kts 142°
2026-05-04 04:16 14.63854 -97.94953 39936 ft 449 kts 143°
2026-05-04 04:16 14.58983 -97.90902 39942 ft 449 kts 143°
2026-05-04 04:17 14.54114 -97.86855 39945 ft 449 kts 143°
2026-05-04 04:17 14.49252 -97.82816 39943 ft 449 kts 143°
2026-05-04 04:18 14.44382 -97.78773 39946 ft 449 kts 143°
2026-05-04 04:18 14.39529 -97.74748 39946 ft 449 kts 143°
2026-05-04 04:19 14.34650 -97.70702 39944 ft 450 kts 142°
2026-05-04 04:19 14.29745 -97.66638 39942 ft 449 kts 142°
2026-05-04 04:20 14.24893 -97.62620 39941 ft 449 kts 142°
2026-05-04 04:20 14.19995 -97.58565 39943 ft 448 kts 142°
2026-05-04 04:21 14.15130 -97.54540 39948 ft 448 kts 142°
2026-05-04 04:21 14.10295 -97.50543 39948 ft 448 kts 142°
2026-05-04 04:22 14.05412 -97.46509 39948 ft 448 kts 142°
2026-05-04 04:22 14.00550 -97.42493 39947 ft 448 kts 142°
2026-05-04 04:23 13.95699 -97.38490 39946 ft 447 kts 142°
2026-05-04 04:23 13.90819 -97.34465 39946 ft 447 kts 142°
2026-05-04 04:24 13.85996 -97.30489 39942 ft 446 kts 142°
2026-05-04 04:24 13.81136 -97.26483 39945 ft 446 kts 142°
2026-05-04 04:25 13.76269 -97.22475 39945 ft 445 kts 142°
2026-05-04 04:25 13.71448 -97.18500 39941 ft 445 kts 142°
2026-05-04 04:26 13.66616 -97.14499 39941 ft 445 kts 142°
2026-05-04 04:26 13.61792 -97.10508 39939 ft 446 kts 142°
2026-05-04 04:27 13.56958 -97.06510 39942 ft 445 kts 142°
2026-05-04 04:27 13.52108 -97.02501 39936 ft 445 kts 142°
2026-05-04 04:28 13.47312 -96.98540 39937 ft 444 kts 142°
2026-05-04 04:28 13.42474 -96.94545 39936 ft 444 kts 142°
2026-05-04 04:29 13.37647 -96.90562 39933 ft 444 kts 142°
2026-05-04 04:29 13.32814 -96.86578 39930 ft 444 kts 142°
2026-05-04 04:30 13.28012 -96.82619 39932 ft 445 kts 142°
2026-05-04 04:30 13.23169 -96.78629 39931 ft 445 kts 142°
2026-05-04 04:31 13.18333 -96.74648 39929 ft 445 kts 142°
2026-05-04 04:31 13.13501 -96.70671 39929 ft 444 kts 142°
2026-05-04 04:32 13.08683 -96.66708 39929 ft 443 kts 142°
2026-05-04 04:32 13.03870 -96.62752 39928 ft 442 kts 142°
2026-05-04 04:33 12.99073 -96.58810 39926 ft 443 kts 142°
2026-05-04 04:33 12.94263 -96.54860 39927 ft 443 kts 142°
2026-05-04 04:34 12.89446 -96.50906 39927 ft 443 kts 142°
2026-05-04 04:34 12.84617 -96.46944 39927 ft 443 kts 142°
2026-05-04 04:35 12.79785 -96.42982 39928 ft 443 kts 142°
2026-05-04 04:35 12.74962 -96.39029 39926 ft 443 kts 142°
2026-05-04 04:36 12.70173 -96.35106 39928 ft 442 kts 142°
2026-05-04 04:36 12.65356 -96.31162 39928 ft 442 kts 142°
2026-05-04 04:37 12.55767 -96.23317 39929 ft 441 kts 142°
2026-05-04 04:38 12.50932 -96.19363 39928 ft 442 kts 142°
2026-05-04 04:38 12.46146 -96.15453 39926 ft 442 kts 142°
2026-05-04 04:39 12.41329 -96.11519 39926 ft 441 kts 142°
2026-05-04 04:39 12.36547 -96.07615 39928 ft 441 kts 142°
2026-05-04 04:40 12.31729 -96.03684 39926 ft 441 kts 142°
2026-05-04 04:40 12.26946 -95.99783 39928 ft 441 kts 141°
2026-05-04 04:41 12.22109 -95.95841 39927 ft 441 kts 141°
2026-05-04 04:41 12.17321 -95.91940 39928 ft 442 kts 141°
2026-05-04 04:42 12.12487 -95.88004 39929 ft 442 kts 141°
2026-05-04 04:42 12.07682 -95.84093 39927 ft 443 kts 141°
2026-05-04 04:43 12.02853 -95.80164 39926 ft 442 kts 141°
2026-05-04 04:43 11.98061 -95.76266 39914 ft 442 kts 141°
2026-05-04 04:44 11.93223 -95.72334 39907 ft 443 kts 141°
2026-05-04 04:44 11.88402 -95.68417 39906 ft 443 kts 141°
2026-05-04 04:45 11.83552 -95.64478 39906 ft 444 kts 141°
2026-05-04 04:47 11.66573 -95.50704 39926 ft 444 kts 141°
2026-05-04 04:47 11.61708 -95.46761 39926 ft 444 kts 141°
2026-05-04 04:48 11.56864 -95.42838 39925 ft 444 kts 141°
2026-05-04 04:49 11.44735 -95.33021 39926 ft 445 kts 142°
2026-05-04 04:49 11.39906 -95.29114 39925 ft 445 kts 142°
2026-05-04 04:50 11.35055 -95.25193 39928 ft 445 kts 142°
2026-05-04 04:50 11.30194 -95.21265 39928 ft 445 kts 142°
2026-05-04 04:51 11.25336 -95.17342 39925 ft 445 kts 142°
2026-05-04 04:51 11.20471 -95.13414 39927 ft 446 kts 142°
2026-05-04 04:52 11.15577 -95.09464 39927 ft 446 kts 142°
2026-05-04 04:52 11.10735 -95.05559 39925 ft 446 kts 142°
2026-05-04 04:53 11.05868 -95.01635 39930 ft 446 kts 142°
2026-05-04 04:53 11.00984 -94.97699 39925 ft 446 kts 142°
2026-05-04 04:54 10.96115 -94.93777 39927 ft 446 kts 142°
2026-05-04 04:54 10.91231 -94.89844 39926 ft 446 kts 142°
2026-05-04 04:55 10.86369 -94.85931 39928 ft 446 kts 142°
2026-05-04 04:55 10.81502 -94.82014 39927 ft 445 kts 142°
2026-05-04 04:56 10.76667 -94.78127 39927 ft 444 kts 142°
2026-05-04 04:56 10.71803 -94.74216 39927 ft 443 kts 141°
2026-05-04 04:57 10.66971 -94.70333 39927 ft 442 kts 141°
2026-05-04 04:57 10.62156 -94.66466 39926 ft 442 kts 141°
2026-05-04 04:58 10.57312 -94.62576 39927 ft 443 kts 141°
2026-05-04 04:58 10.52471 -94.58691 39928 ft 442 kts 141°
2026-05-04 04:59 10.47626 -94.54804 39927 ft 442 kts 141°
2026-05-04 04:59 10.42816 -94.50947 39921 ft 442 kts 141°
2026-05-04 05:00 10.37971 -94.47063 39917 ft 441 kts 141°
2026-05-04 05:01 10.30754 -94.41281 39907 ft 441 kts 141°
2026-05-04 05:01 10.25902 -94.37395 39908 ft 441 kts 141°
2026-05-04 05:02 10.21080 -94.33535 39907 ft 442 kts 141°
2026-05-04 05:02 10.16245 -94.29666 39906 ft 442 kts 141°
2026-05-04 05:03 10.11421 -94.25808 39907 ft 442 kts 141°
2026-05-04 05:04 10.01751 -94.18077 39906 ft 442 kts 141°
2026-05-04 05:04 9.96931 -94.14227 39904 ft 442 kts 141°
2026-05-04 05:06 9.77579 -93.98781 39906 ft 442 kts 141°
2026-05-04 05:07 9.72366 -93.95480 39904 ft 443 kts 153°
2026-05-04 05:07 9.66799 -93.92715 39913 ft 443 kts 153°
2026-05-04 05:09 9.41859 -93.80314 39929 ft 443 kts 153°
2026-05-04 05:10 9.36313 -93.77558 39926 ft 443 kts 153°
2026-05-04 05:10 9.30804 -93.74827 39920 ft 443 kts 152°
2026-05-04 05:11 9.25232 -93.72059 39925 ft 443 kts 152°
2026-05-04 05:11 9.19724 -93.69325 39926 ft 442 kts 152°
2026-05-04 05:12 9.14177 -93.66571 39923 ft 442 kts 152°
2026-05-04 05:12 9.08628 -93.63818 39927 ft 442 kts 152°
2026-05-04 05:13 9.03091 -93.61073 39927 ft 443 kts 152°
2026-05-04 05:13 8.97559 -93.58330 39923 ft 443 kts 152°
2026-05-04 05:14 8.92011 -93.55582 39926 ft 443 kts 152°
2026-05-04 05:14 8.86470 -93.52837 39923 ft 443 kts 152°
2026-05-04 05:15 8.80938 -93.50097 39926 ft 443 kts 152°
2026-05-04 05:15 8.75367 -93.47339 39921 ft 443 kts 153°
2026-05-04 05:16 8.69829 -93.44598 39921 ft 444 kts 152°
2026-05-04 05:16 8.64269 -93.41848 39915 ft 444 kts 152°
2026-05-04 05:17 8.58708 -93.39098 39912 ft 444 kts 153°
2026-05-04 05:17 8.53120 -93.36335 39911 ft 444 kts 152°
2026-05-04 05:18 8.47562 -93.33588 39909 ft 444 kts 153°
2026-05-04 05:18 8.42008 -93.30844 39907 ft 444 kts 153°
2026-05-04 05:19 8.36485 -93.28117 39905 ft 443 kts 153°
2026-05-04 05:19 8.30909 -93.25363 39906 ft 444 kts 153°
2026-05-04 05:20 8.25359 -93.22624 39908 ft 444 kts 153°
2026-05-04 05:20 8.19783 -93.19873 39907 ft 444 kts 153°
2026-05-04 05:21 8.14249 -93.17143 39906 ft 444 kts 153°
2026-05-04 05:21 8.08655 -93.14384 39908 ft 444 kts 153°
2026-05-04 05:22 8.03115 -93.11654 39908 ft 443 kts 153°
2026-05-04 05:22 7.97567 -93.08920 39906 ft 443 kts 153°
2026-05-04 05:23 7.91994 -93.06175 39908 ft 443 kts 153°
2026-05-04 05:23 7.86437 -93.03438 39907 ft 443 kts 153°
2026-05-04 05:24 7.80900 -93.00712 39906 ft 443 kts 153°
2026-05-04 05:24 7.75352 -92.97980 39909 ft 443 kts 153°
2026-05-04 05:25 7.69781 -92.95240 39906 ft 444 kts 153°
2026-05-04 05:25 7.64212 -92.92500 39905 ft 443 kts 153°
2026-05-04 05:26 7.58661 -92.89771 39907 ft 443 kts 153°
2026-05-04 05:26 7.53097 -92.87035 39907 ft 443 kts 153°
2026-05-04 05:28 7.30921 -92.76142 39908 ft 443 kts 153°
2026-05-04 05:29 7.25352 -92.73408 39911 ft 443 kts 153°
2026-05-04 05:29 7.19810 -92.70689 39910 ft 442 kts 152°
2026-05-04 05:31 6.97673 -92.59832 39927 ft 442 kts 153°
2026-05-04 05:32 6.92116 -92.57109 39926 ft 443 kts 153°
2026-05-04 05:33 6.83787 -92.53028 39909 ft 442 kts 153°
2026-05-04 05:33 6.78259 -92.50321 39910 ft 442 kts 153°
2026-05-04 05:34 6.72715 -92.47606 39909 ft 442 kts 153°
2026-05-04 05:34 6.67167 -92.44891 39908 ft 442 kts 153°
2026-05-04 05:35 6.61599 -92.42166 39906 ft 443 kts 153°
2026-05-04 05:35 6.56125 -92.39487 39904 ft 442 kts 153°
2026-05-04 05:36 6.50575 -92.36773 39906 ft 443 kts 153°
2026-05-04 05:36 6.45020 -92.34057 39906 ft 444 kts 153°
2026-05-04 05:37 6.39467 -92.31342 39908 ft 444 kts 153°
2026-05-04 05:37 6.33878 -92.28610 39907 ft 444 kts 153°
2026-05-04 05:38 6.25546 -92.24540 39907 ft 443 kts 153°
2026-05-04 05:38 6.19966 -92.21815 39907 ft 443 kts 153°
2026-05-04 05:39 6.11620 -92.17739 39908 ft 444 kts 153°
2026-05-04 05:40 6.03282 -92.13669 39907 ft 444 kts 153°
2026-05-04 05:40 5.97694 -92.10942 39906 ft 444 kts 153°
2026-05-04 05:41 5.92136 -92.08231 39906 ft 444 kts 153°
2026-05-04 05:41 5.86564 -92.05513 39906 ft 444 kts 153°
2026-05-04 05:42 5.80978 -92.02788 39907 ft 444 kts 153°
2026-05-04 05:42 5.75401 -92.00069 39905 ft 445 kts 153°
2026-05-04 05:43 5.69829 -91.97353 39907 ft 445 kts 153°
2026-05-04 05:45 5.47483 -91.86466 39907 ft 445 kts 153°
2026-05-04 05:47 5.25169 -91.75603 39906 ft 444 kts 153°
2026-05-04 05:47 5.19571 -91.72880 39907 ft 445 kts 153°
2026-05-04 05:48 5.14011 -91.70175 39909 ft 445 kts 153°
2026-05-04 05:48 5.08399 -91.67445 39906 ft 445 kts 153°
2026-05-04 05:49 5.02828 -91.64735 39904 ft 444 kts 153°
2026-05-04 05:49 4.97234 -91.62015 39906 ft 444 kts 153°
2026-05-04 05:51 4.74892 -91.51157 39926 ft 445 kts 153°
2026-05-04 05:52 4.69287 -91.48434 39926 ft 445 kts 153°
2026-05-04 05:52 4.63710 -91.45725 39924 ft 444 kts 153°
2026-05-04 05:54 4.41390 -91.34888 39906 ft 444 kts 152°
2026-05-04 05:55 4.35808 -91.32179 39905 ft 444 kts 152°
2026-05-04 05:55 4.30224 -91.29469 39907 ft 449 kts 153°
2026-05-04 05:56 4.24561 -91.26720 39904 ft 455 kts 153°
2026-05-04 05:56 4.18818 -91.23934 39906 ft 460 kts 153°
2026-05-04 05:57 4.13008 -91.21117 39905 ft 462 kts 153°
2026-05-04 05:57 4.07201 -91.18301 39905 ft 461 kts 153°
2026-05-04 05:58 4.01405 -91.15491 39908 ft 459 kts 153°
2026-05-04 05:58 3.95607 -91.12680 39907 ft 459 kts 153°
2026-05-04 05:59 3.89866 -91.09888 39907 ft 459 kts 152°
2026-05-04 05:59 3.84097 -91.07027 39906 ft 460 kts 152°
2026-05-04 06:00 3.78385 -91.04195 39907 ft 460 kts 152°
2026-05-04 06:00 3.72643 -91.01347 39906 ft 459 kts 152°
2026-05-04 06:01 3.66873 -90.98487 39907 ft 459 kts 152°
2026-05-04 06:03 3.43915 -90.87112 39928 ft 459 kts 152°
2026-05-04 06:05 3.18073 -90.74315 39927 ft 458 kts 152°
2026-05-04 06:06 3.12340 -90.71478 39927 ft 458 kts 152°
2026-05-04 06:06 3.06608 -90.68640 39928 ft 458 kts 152°
2026-05-04 06:07 3.00895 -90.65813 39925 ft 458 kts 152°
2026-05-04 06:07 2.95160 -90.62976 39929 ft 458 kts 152°
2026-05-04 06:08 2.89434 -90.60143 39925 ft 458 kts 152°
2026-05-04 06:08 2.83693 -90.57304 39919 ft 458 kts 152°
2026-05-04 06:09 2.77986 -90.54481 39909 ft 457 kts 152°
2026-05-04 06:11 2.55111 -90.43169 39906 ft 456 kts 152°
2026-05-04 06:13 2.32338 -90.31915 39906 ft 455 kts 152°
2026-05-04 06:14 2.12381 -90.22055 39904 ft 455 kts 152°
2026-05-04 06:15 2.06703 -90.19250 39906 ft 454 kts 152°
2026-05-04 06:15 2.01036 -90.16451 39907 ft 453 kts 152°
2026-05-04 06:16 1.95370 -90.13652 39906 ft 452 kts 152°
2026-05-04 06:16 1.89695 -90.10850 39907 ft 452 kts 152°
2026-05-04 06:17 1.84054 -90.08064 39907 ft 453 kts 152°
2026-05-04 06:17 1.78359 -90.05252 39906 ft 455 kts 152°
2026-05-04 06:18 1.72666 -90.02441 39906 ft 455 kts 152°
2026-05-04 06:20 1.50171 -89.91346 38175 ft 430 kts 152°
2026-05-04 06:20 1.47423 -89.90216 37665 ft 427 kts 158°
2026-05-04 06:21 1.35722 -89.89014 35431 ft 425 kts 184°
2026-05-04 06:21 1.32827 -89.89574 34880 ft 425 kts 189°
2026-05-04 06:22 1.29968 -89.90341 34308 ft 423 kts 191°
2026-05-04 06:22 1.27140 -89.91111 33751 ft 421 kts 191°
2026-05-04 06:25 0.91095 -90.00907 26612 ft 390 kts 194°
2026-05-04 06:25 0.88493 -90.01614 26094 ft 387 kts 195°
2026-05-04 06:26 0.85876 -90.02326 25573 ft 384 kts 195°
2026-05-04 06:26 0.83297 -90.03027 25062 ft 381 kts 195°
2026-05-04 06:26 0.80743 -90.03722 24565 ft 378 kts 196°
2026-05-04 06:26 0.78195 -90.04414 24067 ft 375 kts 196°
2026-05-04 06:27 0.68224 -90.07126 22103 ft 365 kts 197°
2026-05-04 06:28 0.65782 -90.07790 21621 ft 363 kts 196°
2026-05-04 06:28 0.63329 -90.08457 21129 ft 361 kts 195°
2026-05-04 06:28 0.60894 -90.09119 20650 ft 359 kts 195°
2026-05-04 06:28 0.58447 -90.09785 20164 ft 357 kts 195°
2026-05-04 06:29 0.56063 -90.10434 19692 ft 355 kts 194°
2026-05-04 06:29 0.53675 -90.11084 19221 ft 352 kts 194°
2026-05-04 06:29 0.51279 -90.11736 18744 ft 350 kts 193°
2026-05-04 06:29 0.48933 -90.12374 18284 ft 347 kts 193°
2026-05-04 06:30 0.46591 -90.13012 17818 ft 345 kts 193°
2026-05-04 06:30 0.44251 -90.13649 17355 ft 342 kts 192°
2026-05-04 06:30 0.41920 -90.14283 16899 ft 340 kts 192°
2026-05-04 06:30 0.39620 -90.14909 16440 ft 338 kts 192°
2026-05-04 06:31 0.37360 -90.15524 15992 ft 336 kts 192°
2026-05-04 06:31 0.35058 -90.16151 15537 ft 334 kts 192°
2026-05-04 06:31 0.32815 -90.16761 15095 ft 332 kts 192°
2026-05-04 06:31 0.30607 -90.17362 14727 ft 327 kts 192°
2026-05-04 06:32 0.28386 -90.17967 14277 ft 326 kts 192°
2026-05-04 06:33 0.13360 -90.22055 11305 ft 311 kts 192°
2026-05-04 06:34 0.11257 -90.22627 10890 ft 309 kts 193°
2026-05-04 06:34 0.09179 -90.23193 10477 ft 307 kts 192°
2026-05-04 06:34 0.07119 -90.23753 10071 ft 304 kts 193°
2026-05-04 06:34 0.05080 -90.24307 9667 ft 302 kts 194°
2026-05-04 06:35 0.03037 -90.24863 9263 ft 302 kts 194°
2026-05-04 06:36 -0.10993 -90.28680 6491 ft 291 kts 194°
2026-05-04 06:37 -0.12953 -90.29212 6102 ft 289 kts 194°
2026-05-04 06:37 -0.14895 -90.29741 5719 ft 288 kts 194°
2026-05-04 06:37 -0.16822 -90.30265 5333 ft 287 kts 194°
2026-05-04 06:37 -0.18760 -90.30792 4955 ft 284 kts 194°
2026-05-04 06:38 -0.20640 -90.31304 4581 ft 281 kts 194°
2026-05-04 06:38 -0.22526 -90.31818 4212 ft 277 kts 194°
2026-05-04 06:40 -0.35005 -90.34027 1974 ft 223 kts 152°
2026-05-04 06:40 -0.36236 -90.33237 2003 ft 195 kts 143°
2026-05-04 06:40 -0.37277 -90.32473 1847 ft 175 kts 143°
2026-05-04 06:40 -0.38205 -90.31794 1622 ft 152 kts 143°
2026-05-04 06:41 -0.38995 -90.31221 1480 ft 133 kts 143°
2026-05-04 06:41 -0.39741 -90.30680 1311 ft 130 kts 143°
2026-05-04 06:41 -0.40470 -90.30152 1132 ft 128 kts 143°
2026-05-04 06:41 -0.41199 -90.29623 962 ft 128 kts 143°
2026-05-04 06:42 -0.41914 -90.29104 796 ft 127 kts 143°
2026-05-04 06:42 -0.42630 -90.28579 635 ft 126 kts 142°
2026-05-04 06:42 -0.43357 -90.28029 472 ft 126 kts 142°
2026-05-04 06:44 -0.45168 -90.26743 169 ft 52 kts 324°
2026-05-04 06:44 -0.44875 -90.26954 165 ft 47 kts 324°
2026-05-04 06:44 -0.44686 -90.27084 164 ft 10 kts 351°
2026-05-04 06:45 -0.44635 -90.27034 165 ft 7 kts 57°
2026-05-04 06:45 -0.44632 -90.27029 165 ft 1 kts 54°
2026-05-04 06:45 -0.44593 -90.27004 166 ft 7 kts 39°
2026-05-04 06:45 -0.44583 -90.26992 166 ft 0 kts 56°